Wind_Speed
30 28 25 30 31 26 25 31 34 33 31 28 19 12 9 9 21 32 29 28 31 31 28 28 29 29 29 28 25 22 22 22 18 15 16 18 17 16 15 15 13 11 11 12 13 14 15 14 13 14 14 14 16 17 18 19 19 17 15 14 12 12 12
27 24 28 33 35 29 25 30 34 29 29 27 22 19 17 12 19 30 31 31 34 32 30 31 31 31 30 29 25 21 21 22 20 18 17 18 19 18 17 16 13 11 10 11 13 15 16 15 14 16 17 16 16 17 17 19 20 19 18 16 14 13 13
24 22 30 35 35 32 26 30 34 32 32 33 29 27 26 23 26 31 32 34 35 34 33 34 37 36 32 28 25 21 19 19 19 18 18 19 20 19 18 17 16 13 12 13 14 15 17 16 15 16 18 18 18 18 17 18 20 21 20 18 16 14 13
26 25 32 35 35 33 29 31 34 34 35 34 32 31 29 27 28 30 33 35 35 34 32 35 39 40 38 33 29 26 22 19 19 18 18 18 18 19 18 18 17 15 13 13 14 15 16 15 15 17 18 18 19 20 18 18 19 20 21 20 18 17 15
26 28 31 35 36 35 34 33 33 34 35 35 33 31 32 29 26 27 32 35 35 34 32 33 34 34 38 39 36 32 28 24 21 20 20 19 17 18 19 18 17 15 13 14 14 15 15 13 13 17 20 20 20 21 20 19 18 19 21 21 20 18 17
23 30 32 32 34 36 36 34 32 29 30 35 32 24 27 31 29 29 31 31 33 35 34 34 33 30 32 35 35 33 31 28 24 20 20 21 19 18 18 19 19 17 16 16 15 15 14 14 14 18 23 25 23 23 22 20 19 19 20 20 20 19 17
12 20 28 29 31 37 39 36 32 26 24 31 30 23 24 30 32 33 34 29 28 33 35 35 36 32 28 26 26 27 27 28 26 22 20 22 21 19 18 19 20 19 19 18 18 15 14 16 17 18 22 27 26 24 24 23 22 22 21 20 20 19 17
11 9 18 26 34 41 42 39 33 26 22 23 26 26 27 29 33 38 40 35 29 29 32 34 36 35 30 25 23 22 22 25 27 26 24 22 22 21 20 19 20 21 21 20 20 18 16 17 17 17 20 26 26 24 24 25 24 23 23 22 22 22 20
17 17 17 25 33 41 43 41 35 29 24 22 27 30 29 29 33 37 38 38 35 31 30 31 33 33 32 31 27 24 24 25 26 28 28 26 25 25 23 23 22 22 22 21 21 20 19 18 17 17 20 25 27 25 24 24 24 23 23 22 23 24 24
25 24 22 25 28 34 40 41 37 33 28 28 30 33 34 32 34 36 34 33 34 34 31 30 32 31 30 30 28 26 26 26 25 25 27 27 27 27 26 26 25 24 23 22 22 22 22 21 18 18 22 27 29 26 23 23 24 23 22 22 23 24 24
28 25 24 23 20 25 33 35 36 35 31 32 33 36 38 37 35 36 35 33 32 32 31 31 32 32 31 29 26 24 25 25 24 24 26 26 26 27 28 27 27 26 24 24 23 23 24 25 23 21 23 27 28 25 23 25 26 25 23 24 25 25 24
27 26 25 22 19 24 33 38 39 36 36 39 39 38 40 41 39 37 37 37 34 31 32 33 32 32 31 28 25 24 24 24 25 25 27 28 26 26 27 28 28 28 26 25 25 24 25 26 26 24 22 22 24 24 23 25 26 25 25 26 26 25 26
25 23 23 24 23 26 36 42 40 36 39 44 43 39 39 43 44 43 41 41 38 36 36 35 33 32 31 27 25 25 24 25 26 26 27 28 28 27 27 28 30 29 28 27 26 26 26 26 26 26 24 21 23 24 23 25 26 25 25 26 26 25 27
29 23 21 26 26 25 32 40 39 36 39 45 46 43 41 43 47 48 46 45 43 41 41 39 35 33 30 26 24 26 26 26 26 26 26 27 28 28 28 29 30 31 30 29 28 28 28 27 27 28 27 25 24 24 22 22 23 23 25 25 24 24 26
36 33 30 28 25 23 28 36 41 40 39 42 47 47 44 44 47 48 49 49 48 44 42 42 39 34 30 25 22 24 25 26 25 24 24 25 27 29 29 30 31 32 32 32 31 30 30 30 30 29 29 28 26 25 24 24 21 20 22 24 21 20 23
39 41 40 34 28 26 28 32 38 43 40 38 44 48 46 44 45 46 48 50 50 47 43 42 41 38 35 32 27 23 21 22 22 22 22 23 25 28 30 31 32 33 34 34 34 33 33 33 32 31 31 31 29 26 26 26 22 18 18 22 22 21 22
36 38 40 38 33 30 30 30 33 39 39 38 42 45 47 48 47 45 47 48 48 48 46 43 42 42 41 38 33 27 23 21 21 22 22 22 23 26 29 31 33 34 35 36 36 36 35 35 35 34 35 34 33 31 28 27 24 20 18 20 21 22 21
34 35 35 35 34 33 32 31 32 33 34 37 39 39 43 50 50 47 47 48 48 49 48 46 45 45 44 40 36 33 31 27 25 25 26 24 23 24 27 29 32 33 34 35 36 37 37 36 37 37 37 37 36 35 34 32 30 28 25 24 24 23 22
33 32 30 31 33 36 36 36 35 33 33 35 35 33 37 46 50 49 47 46 47 48 48 47 46 46 46 44 41 39 37 34 32 31 31 30 28 27 27 28 30 32 33 35 36 37 38 38 38 39 40 40 38 37 37 36 35 33 32 31 29 28 26
31 29 28 30 32 35 38 38 37 37 38 38 36 34 34 38 43 47 49 47 47 47 48 48 47 47 46 45 44 42 41 39 37 34 33 34 33 31 30 30 30 31 33 34 35 37 38 38 39 40 41 42 41 40 39 38 37 36 35 34 33 31 27
29 27 28 31 32 32 36 36 34 35 38 39 38 36 33 32 33 38 43 45 45 45 46 46 45 44 43 42 42 42 42 41 38 35 34 35 35 33 32 33 33 32 33 34 35 36 37 38 39 40 41 42 42 42 41 40 39 38 37 36 34 32 30
28 27 28 32 34 33 35 34 30 30 33 36 35 33 32 32 30 30 34 38 39 39 40 40 40 41 42 41 40 41 42 42 39 36 35 36 36 35 35 35 35 35 35 35 36 37 38 38 38 39 40 41 43 43 43 43 42 41 39 38 36 34 33
28 28 28 31 33 33 35 34 31 29 31 33 32 31 32 33 32 31 33 36 37 38 38 39 40 40 41 42 41 41 41 42 40 37 35 37 38 38 38 38 37 36 37 37 37 39 39 39 38 39 40 41 42 43 43 43 43 43 42 41 39 38 36
28 29 28 30 33 34 35 36 33 29 27 28 28 30 32 32 32 32 33 35 37 38 38 39 40 39 40 43 45 44 43 42 40 38 37 38 39 39 40 41 40 39 39 39 38 39 41 41 40 41 41 42 42 42 42 43 43 44 44 43 43 41 40
23 26 27 30 32 34 36 38 36 31 27 27 28 29 31 32 33 34 34 35 37 38 38 40 40 39 40 43 45 45 44 42 41 40 38 38 39 40 41 42 42 41 41 41 41 41 42 43 43 43 44 44 43 43 43 43 44 44 45 45 45 44 43
19 21 24 27 30 33 36 37 36 33 30 30 29 28 30 32 34 35 35 35 36 36 38 40 40 40 41 44 45 45 44 41 40 39 38 37 38 39 41 43 43 43 43 44 44 44 44 44 45 45 45 45 45 45 45 45 45 45 46 47 47 46 46
20 20 23 25 27 31 34 35 34 33 32 31 30 29 30 32 34 35 35 34 35 35 38 39 39 38 40 42 42 42 41 39 38 37 37 37 38 39 41 43 43 44 44 45 46 46 46 47 47 47 47 47 48 48 47 47 47 47 47 48 48 48 48
23 23 25 26 28 30 32 32 32 32 31 31 32 32 32 31 32 33 34 34 34 35 37 37 37 38 40 40 40 41 41 41 40 39 39 39 40 41 42 42 43 44 44 45 46 46 46 47 48 48 49 49 49 49 49 49 49 49 49 49 49 49 50
25 26 27 28 29 30 30 30 30 30 29 29 30 32 33 33 33 32 32 32 32 34 36 36 37 40 41 42 42 43 43 43 43 43 42 42 43 43 43 43 44 44 45 45 46 46 45 46 46 47 48 49 50 50 51 51 51 51 51 51 51 51 51
27 27 27 28 29 30 31 31 31 30 29 29 30 31 33 33 34 34 33 33 32 33 35 36 37 40 41 41 42 42 42 43 44 44 43 43 44 44 45 46 46 46 47 47 47 47 47 46 46 46 47 47 48 49 50 51 52 52 52 52 53 53 52
30 29 29 30 31 33 33 34 34 33 32 31 31 32 33 33 33 34 34 34 33 33 34 35 37 38 40 40 40 40 41 42 43 44 44 43 43 44 45 46 47 47 47 48 48 49 49 48 48 48 48 49 49 49 49 50 50 51 52 52 53 53 54
31 32 32 32 33 35 36 36 36 36 35 33 33 33 34 34 33 33 34 34 35 35 36 36 37 38 38 38 39 39 39 39 41 43 43 43 43 44 44 45 46 46 46 47 48 49 49 49 49 49 50 50 50 50 50 50 50 50 50 51 51 52 53
32 33 34 34 34 34 35 37 38 37 36 35 35 34 35 35 36 36 36 36 36 37 37 37 38 38 38 38 39 39 38 39 40 41 41 42 43 43 44 44 44 44 44 45 46 47 48 49 49 49 49 49 50 50 50 50 50 50 50 50 50 50 51
31 32 32 33 34 34 33 34 37 38 38 37 36 37 37 37 36 36 36 36 36 36 36 36 38 39 40 40 40 40 40 40 40 40 40 41 42 42 42 42 42 42 42 42 43 44 46 47 48 49 49 48 48 48 48 49 49 49 49 50 50 50 50
30 30 30 31 33 35 35 35 36 37 37 37 37 37 38 38 37 37 37 37 37 37 36 35 36 37 38 39 40 40 41 41 41 41 41 42 42 43 43 43 42 42 41 41 42 43 44 46 47 47 48 48 47 47 47 47 47 48 48 49 49 50 50
31 31 32 33 33 34 36 37 37 38 38 38 38 37 37 38 38 38 38 38 38 38 36 35 34 35 36 37 38 39 39 39 39 40 41 42 43 44 44 44 43 43 43 43 43 43 44 45 46 46 47 47 47 47 47 47 47 47 48 49 49 49 50
32 33 34 35 34 34 34 35 37 39 40 40 40 39 39 38 38 38 39 40 40 40 39 37 36 35 35 36 36 36 36 36 36 37 38 39 40 42 43 43 43 44 44 45 46 46 45 46 47 47 47 47 48 48 48 49 49 49 49 49 49 50 50
Wind_Direction
232 219 201 198 197 193 189 197 206 201 197 202 202 210 226 217 202 200 206 217 222 229 234 235 237 236 241 247 246 242 230 216 213 221 225 222 220 222 227 231 236 235 229 228 231 228 220 221 228 219 212 220 226 224 225 225 223 223 224 219 206 195 199
237 216 200 200 196 190 185 196 208 201 188 187 186 196 204 197 205 211 213 219 229 238 241 242 242 239 241 243 240 236 230 224 228 237 238 229 220 219 222 224 227 226 221 221 222 220 222 227 230 224 220 222 225 224 224 225 225 225 225 224 217 206 202
229 204 200 208 202 193 188 195 204 198 185 182 183 189 192 196 210 216 217 222 229 237 243 246 246 244 242 242 242 241 236 232 234 238 237 229 218 214 219 222 220 219 218 218 219 222 230 233 230 225 221 219 222 223 223 225 226 226 227 226 223 217 211
220 203 197 205 203 195 196 201 199 196 191 187 187 187 183 195 215 219 221 226 227 229 237 241 242 241 241 243 245 245 241 238 238 237 233 228 218 213 216 221 222 221 222 225 227 230 233 235 233 225 218 218 222 223 222 223 226 227 226 225 224 222 218
220 215 200 203 204 195 198 207 205 202 196 188 191 191 184 197 221 223 222 229 231 231 234 235 236 236 237 241 242 243 245 245 245 242 232 224 218 216 215 218 221 221 224 229 233 236 235 237 240 232 224 224 227 226 223 221 225 228 226 225 224 222 220
218 223 208 202 204 198 197 205 210 212 204 192 193 193 188 203 224 227 223 229 233 233 233 236 237 234 234 237 237 239 244 244 244 242 230 219 216 219 217 216 218 220 225 230 232 236 239 241 247 242 231 227 228 228 225 221 223 227 226 224 221 220 221
202 225 217 205 196 195 198 202 203 204 199 194 196 196 195 210 224 223 222 227 231 232 235 238 238 233 230 233 234 238 243 241 238 236 228 219 218 221 221 219 221 222 227 232 230 232 237 239 248 250 235 226 227 226 221 220 221 221 221 220 218 218 221
147 171 215 208 194 196 200 200 197 183 173 190 207 207 201 211 221 218 219 225 227 227 227 228 230 230 230 233 235 238 240 238 235 233 231 227 225 225 224 222 223 224 228 231 230 229 232 236 246 251 235 226 227 227 224 225 224 220 219 218 217 217 217
154 157 198 207 199 200 200 200 195 177 174 206 224 217 205 210 220 218 220 226 226 224 222 221 227 233 236 236 234 233 235 236 236 235 235 236 234 232 229 226 225 226 228 231 230 229 230 231 238 243 233 225 225 226 226 232 234 228 223 219 218 219 219
160 165 195 208 207 205 203 205 197 182 192 218 220 213 210 215 222 221 222 228 227 227 229 230 233 237 237 233 228 229 233 236 237 235 235 236 235 233 231 229 229 229 230 231 232 231 229 228 231 234 229 224 224 222 219 223 230 231 229 224 222 223 222
177 180 193 202 205 201 199 198 190 187 205 215 208 208 212 219 227 227 226 227 226 227 230 232 235 238 239 235 229 228 232 235 236 233 231 231 230 228 228 229 229 230 230 232 233 233 231 229 230 232 228 222 223 224 218 215 218 223 229 231 229 227 225
199 200 196 195 197 195 193 187 183 192 208 207 201 206 213 218 224 229 229 226 226 230 231 231 235 239 242 241 234 231 231 232 233 230 227 227 225 224 226 227 230 231 230 232 234 235 234 232 231 236 236 227 224 229 228 224 221 221 225 228 230 229 229
205 206 205 206 202 196 195 190 186 195 205 202 200 207 215 215 217 223 228 226 228 235 234 233 237 241 244 244 238 234 229 227 228 227 225 225 223 222 223 225 229 231 232 233 235 237 238 237 235 239 243 235 226 227 230 231 227 224 224 227 229 232 233
208 205 204 207 206 202 201 196 192 196 202 201 201 209 216 215 214 218 223 225 229 234 235 236 237 239 243 244 239 235 229 225 227 229 227 225 224 223 222 224 227 231 232 233 236 238 241 242 241 242 245 242 235 232 232 233 230 226 227 228 230 233 234
219 216 213 211 212 213 208 201 199 202 203 201 203 210 215 215 215 217 220 225 228 230 234 238 239 239 241 242 237 232 228 226 228 231 230 227 226 224 223 224 226 229 232 233 234 237 240 244 245 244 244 245 243 241 238 236 237 235 229 224 226 230 231
224 225 225 221 218 216 212 208 207 208 209 205 205 211 215 215 217 218 220 225 228 230 235 241 241 241 242 242 238 230 227 227 228 230 230 228 227 227 226 226 227 228 231 232 234 236 238 242 245 244 244 245 244 245 243 241 245 247 234 223 226 233 234
220 225 228 223 217 215 215 215 213 214 215 210 207 214 218 217 218 220 221 226 230 233 239 242 242 242 242 243 242 237 232 229 227 229 231 229 229 230 229 230 230 231 232 233 235 236 237 240 244 246 248 248 248 249 250 248 248 248 238 228 228 233 235
219 223 226 222 215 213 212 212 216 221 223 217 212 217 222 221 221 222 223 227 231 234 238 241 242 243 243 244 246 243 238 234 231 233 235 235 234 233 233 234 234 234 235 235 236 236 236 238 241 245 249 250 251 252 254 253 252 250 247 243 242 242 243
221 222 227 227 223 219 216 215 220 227 228 224 220 222 226 224 224 226 227 227 229 232 235 239 241 244 245 247 247 246 244 240 237 238 239 239 239 237 236 236 236 237 238 238 238 238 237 237 238 242 246 249 250 252 253 255 255 254 254 254 255 253 250
221 220 226 231 231 229 226 223 222 224 227 230 232 234 233 228 225 227 229 229 230 233 236 238 241 244 246 248 247 247 246 243 239 239 240 241 241 242 241 240 239 239 240 241 241 241 240 239 239 240 243 247 249 250 252 254 255 255 256 257 258 258 256
224 219 222 229 231 233 234 228 223 225 231 236 238 240 242 237 231 229 231 232 232 234 236 237 239 240 242 244 244 244 244 243 239 238 240 241 242 242 243 242 241 241 241 242 243 244 243 243 242 242 242 245 247 249 251 253 254 255 256 256 258 259 258
228 221 219 226 230 232 234 233 227 227 233 237 238 241 243 242 237 233 232 233 233 233 233 234 235 235 237 239 240 241 243 243 241 239 240 241 242 243 243 243 243 243 243 243 244 245 245 245 245 244 244 244 246 248 250 252 253 254 255 256 257 258 257
231 226 221 226 230 232 234 234 229 226 231 237 239 239 239 239 238 235 233 234 235 235 235 236 235 235 236 236 237 238 241 243 243 241 239 241 243 244 245 245 245 245 246 246 245 246 246 246 245 244 245 246 246 247 249 250 252 254 255 255 256 256 256
233 231 227 228 232 234 235 235 231 228 233 240 239 236 235 236 237 236 235 235 236 235 235 237 238 237 237 237 237 238 240 243 244 242 240 241 243 245 246 247 247 246 246 246 246 246 246 246 245 244 245 246 246 246 247 248 250 252 254 255 255 255 255
234 233 231 231 233 234 236 238 235 232 233 237 238 236 235 233 233 234 236 236 236 235 235 238 240 240 241 242 242 242 242 242 242 242 242 242 243 244 245 247 247 246 245 245 245 245 246 247 247 246 247 247 247 247 247 247 247 248 250 252 254 256 256
235 233 231 231 234 236 237 239 238 236 235 238 240 240 239 237 234 234 234 234 236 237 238 239 240 241 243 245 245 246 245 243 240 239 240 241 242 242 243 245 247 245 244 245 245 245 246 248 248 249 249 249 249 248 248 248 248 248 249 250 251 253 255
234 235 234 233 234 237 239 239 239 238 238 239 239 239 240 241 240 239 238 238 239 241 242 242 242 243 245 247 247 248 248 245 240 237 236 238 240 241 242 244 246 246 247 246 246 246 247 248 249 250 250 250 251 251 250 250 250 250 249 249 250 251 252
234 235 236 236 235 238 240 239 238 237 237 238 239 240 240 241 242 244 245 245 244 245 246 246 245 245 246 248 248 247 247 246 244 241 239 239 240 242 244 245 246 247 249 249 249 249 248 248 249 250 251 251 252 252 252 252 251 251 251 251 251 250 251
236 236 237 239 240 242 244 243 240 239 239 238 238 239 239 239 240 243 246 247 247 247 247 246 244 243 244 246 247 247 248 248 248 246 245 243 242 243 244 245 246 248 249 250 251 252 251 250 251 251 252 253 253 253 253 253 253 252 252 252 252 252 251
239 238 239 242 243 243 244 245 245 243 241 238 237 239 241 241 240 241 243 245 246 248 249 248 245 244 244 245 246 247 248 248 248 248 248 246 245 245 245 245 246 248 249 251 252 253 254 254 254 254 254 254 255 255 255 255 254 254 253 254 253 253 253
243 239 238 240 241 240 240 242 244 244 243 238 236 237 240 242 242 242 244 245 246 247 249 250 248 246 245 245 246 247 248 248 249 249 249 248 247 246 246 246 246 247 249 250 251 252 254 255 256 256 256 256 256 257 257 257 257 257 256 255 255 255 254
248 245 241 240 241 241 241 241 241 243 244 242 238 236 238 241 242 243 244 246 247 247 248 249 249 248 247 247 247 247 247 247 248 248 249 249 249 248 247 247 248 248 249 249 251 252 253 254 255 256 256 257 257 257 258 258 259 259 259 258 257 256 256
249 249 246 244 243 243 243 243 241 240 241 242 242 240 240 242 242 242 242 244 246 248 249 251 252 251 249 248 248 247 247 247 247 248 248 249 249 249 249 249 249 249 249 250 251 252 253 254 255 255 256 256 257 257 258 258 259 259 260 260 259 258 257
247 247 248 247 246 245 244 244 243 241 239 240 242 243 243 244 245 244 243 243 244 246 248 250 251 251 251 250 249 249 248 248 248 248 249 249 249 249 249 249 249 249 250 250 251 252 253 254 255 256 257 257 257 258 258 259 259 259 260 260 260 260 259
246 246 247 246 247 248 248 248 248 246 244 243 243 243 243 244 246 248 247 245 244 244 245 247 249 250 250 249 249 249 250 250 250 250 250 251 251 251 251 250 250 250 250 250 250 250 252 253 254 256 257 258 258 259 259 259 259 259 259 260 260 261 261
247 247 247 246 245 247 249 251 252 250 248 247 245 244 243 244 245 247 248 248 247 247 246 246 247 248 248 248 249 250 251 251 251 251 251 252 253 253 253 253 253 252 251 250 250 250 251 252 253 254 255 257 258 259 259 259 259 259 259 259 260 261 261
245 245 247 246 246 247 249 252 253 253 251 250 249 246 245 244 244 245 247 249 250 250 249 247 247 247 248 249 249 250 250 250 250 250 251 252 253 254 255 255 255 255 254 253 253 252 253 254 254 254 255 256 258 258 259 259 258 258 259 259 259 260 260
Height
5822 5828 5832 5833 5835 5839 5844 5847 5848 5852 5857 5860 5864 5867 5869 5871 5873 5873 5873 5872 5871 5871 5874 5877 5879 5881 5884 5888 5891 5893 5896 5898 5901 5903 5905 5907 5909 5911 5912 5913 5914 5915 5916 5918 5920 5921 5922 5924 5925 5925 5927 5929 5930 5932 5934 5937 5939 5940 5941 5941 5943 5944 5945
5819 5826 5829 5829 5832 5835 5840 5845 5846 5850 5855 5858 5860 5863 5866 5869 5870 5869 5871 5871 5870 5870 5873 5875 5878 5880 5882 5885 5889 5891 5893 5897 5900 5902 5904 5906 5907 5909 5910 5912 5913 5915 5916 5917 5918 5919 5920 5921 5923 5924 5926 5928 5929 5930 5932 5934 5937 5938 5940 5941 5942 5943 5944
5817 5823 5827 5828 5831 5833 5836 5840 5843 5848 5852 5853 5856 5859 5863 5866 5865 5864 5867 5867 5866 5868 5871 5872 5874 5877 5879 5883 5887 5890 5892 5896 5898 5900 5902 5903 5905 5907 5908 5910 5912 5913 5914 5915 5916 5917 5917 5918 5921 5922 5924 5926 5928 5929 5931 5932 5934 5936 5938 5940 5941 5942 5944
5814 5819 5823 5826 5830 5832 5833 5835 5839 5844 5848 5851 5854 5856 5860 5862 5860 5861 5863 5863 5862 5865 5869 5868 5868 5871 5876 5880 5884 5887 5890 5893 5896 5898 5899 5901 5903 5905 5907 5909 5911 5912 5913 5914 5914 5915 5916 5917 5920 5921 5922 5924 5926 5927 5929 5930 5932 5934 5936 5938 5939 5941 5942
5811 5814 5820 5823 5827 5829 5831 5834 5837 5841 5846 5851 5852 5854 5857 5858 5857 5858 5859 5860 5860 5863 5867 5867 5865 5868 5872 5876 5881 5884 5887 5890 5893 5895 5897 5899 5901 5903 5905 5907 5909 5911 5911 5911 5912 5913 5914 5916 5918 5920 5921 5922 5924 5926 5927 5928 5931 5932 5934 5936 5937 5939 5941
5809 5811 5817 5822 5826 5829 5830 5833 5837 5842 5846 5850 5851 5853 5856 5855 5854 5855 5856 5858 5858 5860 5863 5865 5866 5867 5869 5872 5877 5880 5883 5886 5889 5892 5894 5896 5899 5901 5903 5905 5907 5909 5909 5909 5910 5911 5913 5915 5916 5917 5919 5919 5921 5923 5925 5926 5928 5930 5932 5934 5935 5936 5938
5808 5810 5814 5820 5825 5828 5828 5830 5835 5840 5845 5848 5850 5850 5851 5850 5849 5851 5853 5855 5856 5858 5860 5861 5863 5865 5867 5870 5874 5877 5879 5882 5885 5888 5891 5894 5896 5898 5901 5904 5905 5907 5907 5908 5909 5911 5912 5913 5913 5914 5916 5916 5918 5920 5922 5923 5924 5925 5928 5930 5932 5933 5935
5806 5809 5812 5816 5820 5822 5824 5828 5833 5839 5844 5846 5845 5844 5845 5845 5845 5848 5850 5851 5853 5855 5856 5858 5859 5861 5864 5868 5872 5874 5876 5878 5881 5884 5887 5891 5894 5896 5899 5901 5903 5904 5905 5906 5908 5909 5911 5911 5911 5911 5912 5914 5916 5919 5922 5923 5922 5923 5925 5926 5928 5930 5932
5805 5807 5809 5812 5815 5818 5822 5826 5832 5838 5841 5840 5839 5841 5843 5841 5841 5844 5847 5848 5850 5852 5853 5855 5856 5857 5859 5864 5870 5872 5873 5875 5877 5879 5883 5887 5890 5893 5895 5898 5899 5901 5903 5904 5905 5907 5908 5909 5909 5909 5910 5912 5913 5916 5920 5923 5923 5923 5925 5925 5925 5928 5929
5802 5804 5807 5810 5812 5816 5820 5824 5830 5835 5835 5832 5834 5838 5838 5837 5836 5840 5842 5844 5847 5849 5850 5851 5852 5853 5855 5861 5867 5870 5871 5872 5873 5876 5879 5883 5886 5889 5891 5894 5896 5898 5900 5901 5902 5903 5905 5907 5908 5908 5908 5909 5911 5912 5915 5919 5921 5924 5925 5924 5923 5925 5927
5799 5801 5805 5808 5810 5814 5818 5821 5827 5831 5828 5828 5831 5833 5834 5834 5834 5835 5838 5840 5843 5845 5845 5846 5848 5849 5852 5858 5865 5868 5869 5869 5870 5873 5876 5879 5882 5885 5887 5890 5892 5895 5897 5899 5900 5901 5902 5903 5905 5906 5906 5907 5909 5911 5912 5914 5917 5919 5921 5921 5921 5923 5925
5799 5800 5803 5805 5807 5810 5812 5816 5820 5823 5822 5824 5828 5830 5829 5830 5832 5833 5834 5837 5840 5840 5841 5843 5845 5847 5850 5855 5861 5865 5866 5867 5868 5870 5873 5876 5879 5882 5884 5886 5889 5891 5894 5896 5897 5898 5899 5900 5903 5904 5905 5906 5908 5910 5911 5912 5913 5914 5914 5915 5918 5921 5922
5797 5799 5801 5803 5805 5806 5809 5813 5815 5817 5818 5821 5825 5826 5824 5826 5830 5831 5832 5835 5837 5837 5838 5841 5845 5847 5848 5852 5856 5860 5864 5865 5865 5868 5871 5874 5876 5879 5881 5883 5885 5887 5890 5892 5894 5896 5896 5898 5901 5902 5903 5905 5906 5907 5910 5911 5911 5911 5911 5912 5915 5917 5919
5795 5798 5800 5801 5802 5803 5807 5812 5813 5812 5814 5819 5822 5822 5820 5823 5826 5828 5831 5833 5834 5835 5836 5839 5843 5845 5848 5851 5853 5857 5860 5862 5863 5865 5868 5871 5874 5876 5878 5880 5882 5884 5886 5889 5891 5893 5894 5896 5898 5899 5900 5901 5902 5904 5907 5909 5910 5910 5909 5910 5912 5914 5916
5794 5796 5796 5798 5801 5803 5805 5808 5808 5809 5812 5816 5819 5817 5817 5820 5823 5826 5829 5829 5830 5833 5835 5837 5840 5844 5847 5849 5851 5854 5857 5860 5861 5863 5865 5868 5871 5873 5875 5877 5879 5881 5883 5886 5888 5890 5892 5893 5895 5897 5897 5897 5897 5899 5901 5903 5905 5907 5908 5908 5909 5910 5913
5791 5792 5795 5798 5800 5800 5802 5803 5804 5806 5809 5813 5815 5813 5813 5817 5820 5823 5825 5825 5828 5832 5834 5836 5839 5841 5844 5846 5849 5853 5856 5858 5860 5861 5862 5865 5867 5870 5872 5873 5875 5877 5879 5882 5884 5886 5889 5890 5892 5894 5894 5893 5893 5894 5896 5898 5900 5903 5905 5906 5907 5908 5910
5788 5790 5792 5795 5796 5798 5800 5801 5802 5804 5806 5809 5812 5810 5809 5812 5816 5819 5823 5824 5827 5830 5832 5834 5835 5837 5840 5843 5846 5851 5854 5856 5858 5859 5860 5861 5863 5865 5868 5870 5871 5873 5875 5877 5879 5882 5884 5886 5888 5889 5890 5891 5891 5892 5894 5896 5898 5900 5902 5904 5905 5906 5907
5786 5787 5788 5790 5792 5795 5798 5798 5799 5801 5804 5806 5808 5807 5805 5808 5813 5817 5820 5822 5825 5827 5828 5830 5831 5833 5837 5839 5842 5847 5850 5853 5856 5856 5857 5858 5860 5862 5864 5866 5868 5869 5871 5873 5875 5877 5880 5882 5884 5885 5886 5888 5889 5891 5892 5893 5895 5898 5899 5901 5903 5905 5906
5783 5785 5785 5786 5788 5791 5793 5795 5798 5800 5801 5801 5802 5802 5804 5808 5813 5816 5817 5820 5822 5823 5824 5826 5827 5829 5833 5834 5837 5841 5844 5848 5852 5853 5854 5856 5857 5859 5860 5862 5864 5866 5867 5869 5872 5873 5876 5878 5880 5882 5883 5884 5886 5888 5890 5890 5892 5895 5896 5898 5900 5901 5903
5780 5783 5783 5783 5785 5786 5788 5794 5797 5796 5795 5795 5798 5801 5804 5808 5811 5812 5814 5816 5818 5819 5821 5822 5823 5826 5828 5829 5832 5836 5838 5842 5848 5850 5851 5852 5854 5855 5857 5859 5861 5862 5864 5866 5867 5869 5871 5873 5876 5878 5879 5880 5882 5884 5886 5887 5889 5891 5893 5894 5896 5897 5899
5777 5780 5780 5780 5782 5782 5785 5790 5793 5791 5790 5792 5795 5799 5802 5805 5808 5809 5810 5811 5813 5815 5817 5818 5819 5823 5824 5825 5828 5830 5831 5835 5843 5847 5848 5848 5850 5852 5853 5855 5857 5858 5860 5862 5864 5865 5867 5870 5872 5874 5875 5876 5877 5879 5881 5883 5884 5886 5889 5891 5892 5894 5896
5773 5776 5776 5776 5777 5779 5781 5784 5787 5788 5788 5788 5793 5796 5798 5800 5803 5805 5805 5806 5808 5810 5812 5813 5815 5818 5820 5822 5824 5825 5826 5830 5838 5843 5844 5844 5846 5848 5849 5850 5852 5855 5857 5858 5860 5861 5863 5866 5868 5869 5870 5871 5873 5874 5876 5878 5880 5881 5883 5886 5888 5890 5893
5769 5771 5773 5774 5774 5775 5777 5779 5782 5784 5784 5786 5790 5793 5792 5794 5798 5800 5800 5801 5801 5804 5807 5807 5809 5813 5816 5818 5820 5821 5823 5827 5833 5838 5840 5840 5842 5844 5845 5846 5849 5851 5852 5854 5856 5858 5860 5862 5863 5864 5865 5867 5869 5870 5872 5873 5875 5877 5878 5881 5883 5886 5889
5765 5767 5770 5771 5771 5771 5773 5775 5777 5781 5783 5784 5786 5787 5788 5791 5793 5794 5794 5795 5795 5798 5801 5802 5805 5809 5811 5812 5814 5817 5821 5825 5829 5833 5834 5835 5838 5840 5840 5841 5845 5847 5847 5850 5852 5853 5854 5856 5858 5859 5860 5863 5864 5866 5868 5869 5871 5872 5874 5876 5878 5881 5884
5762 5764 5765 5766 5766 5767 5769 5770 5773 5778 5781 5781 5781 5783 5785 5787 5788 5788 5789 5790 5790 5793 5797 5800 5803 5806 5806 5806 5809 5813 5818 5823 5825 5827 5828 5830 5833 5834 5834 5837 5840 5841 5842 5844 5846 5847 5849 5851 5852 5854 5856 5858 5859 5861 5863 5865 5866 5868 5870 5871 5873 5875 5878
5759 5760 5761 5762 5762 5763 5765 5767 5770 5774 5777 5777 5778 5780 5780 5780 5781 5783 5784 5785 5787 5791 5795 5796 5799 5802 5801 5801 5805 5808 5813 5818 5821 5823 5824 5826 5827 5828 5829 5832 5834 5835 5836 5839 5840 5842 5844 5846 5847 5849 5851 5853 5854 5856 5858 5860 5861 5863 5865 5867 5869 5871 5872
5756 5757 5757 5758 5759 5760 5761 5764 5767 5770 5772 5773 5775 5775 5774 5774 5776 5779 5781 5782 5785 5789 5790 5791 5795 5799 5798 5797 5801 5805 5807 5810 5815 5818 5820 5821 5822 5822 5824 5827 5828 5828 5830 5833 5834 5837 5839 5841 5842 5844 5846 5847 5848 5850 5853 5854 5856 5858 5860 5862 5864 5866 5868
5752 5753 5753 5754 5755 5756 5758 5761 5764 5765 5768 5769 5770 5770 5770 5771 5774 5776 5778 5781 5783 5784 5784 5787 5791 5794 5793 5793 5797 5799 5801 5804 5809 5812 5815 5816 5816 5817 5820 5823 5823 5823 5825 5827 5828 5831 5834 5836 5837 5838 5840 5841 5843 5845 5847 5848 5850 5852 5854 5856 5858 5860 5862
5748 5749 5749 5750 5752 5754 5755 5757 5759 5761 5764 5765 5766 5766 5766 5768 5772 5773 5774 5776 5778 5779 5779 5782 5784 5785 5786 5788 5790 5793 5796 5800 5802 5804 5807 5810 5811 5813 5815 5817 5817 5818 5819 5821 5823 5826 5828 5830 5831 5833 5834 5835 5837 5838 5840 5842 5844 5846 5848 5849 5851 5853 5855
5744 5745 5746 5747 5749 5751 5752 5753 5755 5757 5759 5761 5761 5762 5762 5765 5769 5771 5771 5773 5774 5774 5775 5776 5778 5779 5781 5783 5785 5788 5791 5793 5794 5796 5799 5802 5805 5807 5810 5810 5811 5812 5814 5816 5819 5820 5821 5823 5825 5827 5828 5829 5830 5832 5834 5835 5837 5839 5841 5843 5845 5846 5849
5740 5741 5742 5743 5744 5746 5747 5748 5750 5751 5753 5755 5757 5758 5759 5761 5765 5767 5767 5769 5770 5771 5771 5771 5772 5774 5776 5779 5781 5783 5785 5787 5788 5790 5792 5795 5798 5801 5802 5803 5805 5807 5809 5811 5812 5813 5815 5816 5818 5820 5821 5823 5824 5826 5827 5829 5831 5833 5835 5836 5838 5840 5842
5736 5737 5738 5739 5740 5741 5742 5743 5745 5746 5747 5748 5751 5754 5756 5757 5760 5762 5763 5764 5765 5765 5766 5767 5768 5770 5772 5775 5776 5778 5780 5782 5783 5783 5785 5789 5791 5793 5795 5797 5799 5801 5803 5805 5805 5807 5809 5810 5811 5812 5814 5816 5818 5820 5821 5823 5825 5826 5828 5829 5831 5833 5835
5731 5732 5734 5736 5736 5737 5737 5738 5739 5741 5742 5743 5746 5750 5752 5752 5754 5757 5758 5759 5759 5760 5762 5763 5764 5765 5767 5769 5770 5772 5775 5776 5776 5778 5780 5783 5784 5785 5788 5790 5793 5795 5797 5798 5799 5801 5802 5803 5804 5805 5807 5809 5811 5813 5815 5817 5818 5820 5821 5822 5824 5825 5827
5726 5727 5729 5731 5732 5733 5733 5732 5732 5735 5738 5739 5741 5744 5746 5747 5748 5750 5752 5754 5755 5756 5758 5759 5759 5760 5762 5764 5765 5767 5768 5769 5771 5773 5775 5776 5777 5779 5781 5783 5786 5788 5791 5793 5794 5794 5795 5795 5797 5798 5800 5802 5804 5806 5808 5810 5812 5813 5814 5815 5816 5817 5819
5722 5723 5725 5726 5727 5728 5728 5728 5727 5730 5733 5735 5736 5739 5741 5742 5743 5743 5745 5747 5749 5751 5753 5754 5754 5755 5757 5758 5759 5760 5762 5764 5766 5768 5768 5769 5771 5772 5774 5777 5780 5782 5785 5787 5788 5788 5788 5789 5790 5792 5793 5795 5797 5800 5802 5803 5804 5805 5806 5807 5808 5809 5811
5717 5718 5719 5720 5722 5723 5724 5724 5724 5725 5727 5728 5730 5733 5735 5736 5738 5738 5738 5740 5742 5745 5747 5749 5749 5750 5752 5753 5754 5756 5758 5759 5760 5761 5762 5763 5764 5766 5768 5770 5773 5776 5778 5780 5781 5782 5783 5783 5784 5786 5788 5789 5791 5792 5794 5795 5796 5798 5799 5800 5801 5803 5804
5711 5712 5713 5714 5716 5717 5719 5720 5719 5720 5721 5722 5724 5727 5729 5730 5732 5733 5733 5735 5737 5738 5740 5742 5744 5746 5747 5749 5750 5752 5752 5752 5753 5755 5756 5758 5759 5760 5762 5764 5766 5768 5770 5772 5774 5776 5777 5778 5778 5780 5782 5784 5784 5785 5786 5787 5788 5790 5792 5793 5795 5796 5797